Flag for Russia Weather past 2 weeks in Krasnodar, Russia

Now
86 °F

Passing clouds.


Feels Like: 85 °F
Forecast: 59 / 83 °F
Wind: 6 mph from Southeast

Location: Krasnodar Airport

Current Time: May 26, 2015 at 1:47:36 PM

Latest Report: May 26, 2015 at 1:00 PM


Visibility: N/A

Pressure: 29.74 "Hg

Humidity: 40%

Dew point: 59 °F

Location of KrasnodarLocation

Historic Weather in Krasnodar — Graph

°F

Krasnodar temperature yesterday

Maximum temperature yesterday: 86 °F (at 4:00 PM)
Minimum temperature yesterday: 64 °F (at 3:30 AM)
Average temperature yesterday: 74 °F

Past Weeks' High & Low Weather Summary

 TemperatureHumidityPressure
High86 °F (May 25, 4:00 PM)100% (May 14, 3:30 AM)30.09 "Hg (May 14, 3:30 AM)
Low48 °F (May 13, 5:00 AM)26% (May 20, 2:30 PM)29.74 "Hg (May 25, 11:00 PM)
Average67 °F58%29.95 "Hg
* Reported May 11 12:00 Noon — May 26 12:30 PM, Krasnodar, Weather by CustomWeather, © 2015

Note: Actual official high and low records may vary slightly from our data, if they occured in-between our weather recording intervals... More about our weather records

Advertising

Krasnodar weather history for previous 24 hours

 ConditionsComfort  
Time TempWeatherWind HumidityBarometerVisibility
12:30 PM
Tue, May 26
84 °FSunny.3 mph43%29.74 "Hg10 mi
12:00 PM84 °FPassing clouds.6 mph43%29.77 "HgN/A
11:30 AM82 °FPassing clouds.6 mph45%29.77 "HgN/A
11:00 AM81 °FPassing clouds.6 mph51%29.77 "HgN/A
10:30 AM79 °FPassing clouds.3 mph54%29.77 "HgN/A
10:00 AM79 °FPassing clouds.6 mph51%29.77 "HgN/A
9:30 AM77 °FPassing clouds.6 mph54%29.77 "HgN/A
9:00 AM75 °FPassing clouds.3 mph61%29.74 "HgN/A
8:30 AM75 °FSunny.6 mph61%29.77 "Hg10 mi
8:00 AM73 °FPassing clouds.3 mph65%29.74 "HgN/A
7:30 AM73 °FSunny.6 mph65%29.77 "Hg10 mi
6:30 AM70 °FSunny.No wind69%29.74 "Hg10 mi
6:00 AM66 °FSunny.No wind83%29.74 "Hg10 mi
5:30 AM61 °FPassing clouds.3 mph88%29.74 "HgN/A
5:00 AM61 °FClear.3 mph88%29.74 "Hg10 mi
4:30 AM61 °FClear.3 mph88%29.74 "Hg10 mi
4:00 AM63 °FClear.1 mph77%29.74 "Hg10 mi
3:30 AM61 °FClear.No wind83%29.74 "Hg10 mi
3:00 AM63 °FClear.No wind83%29.74 "Hg10 mi
2:30 AM64 °FClear.No wind78%29.74 "Hg10 mi
2:00 AM64 °FClear.No wind73%29.74 "Hg10 mi
1:30 AM66 °FClear.No wind73%29.74 "Hg10 mi
1:00 AM66 °FClear.3 mph73%29.74 "Hg10 mi
12:30 AM68 °FClear.6 mph69%29.74 "Hg10 mi
11:30 PM
Mon, May 25
66 °FClear.8 mph73%29.74 "Hg10 mi
11:00 PM68 °FClear.8 mph73%29.74 "Hg10 mi
10:30 PM70 °FClear.6 mph69%29.77 "Hg10 mi
10:00 PM70 °FClear.6 mph69%29.77 "Hg10 mi
9:30 PM72 °FClear.8 mph65%29.77 "Hg10 mi
9:00 PM72 °FClear.8 mph69%29.77 "Hg10 mi
8:30 PM72 °FSunny.8 mph69%29.77 "Hg10 mi
8:00 PM75 °FSunny.8 mph61%29.77 "Hg10 mi
7:30 PM79 °FSunny.8 mph54%29.77 "Hg10 mi
7:00 PM81 °FSunny.8 mph51%29.77 "Hg10 mi
6:30 PM82 °FScattered clouds.10 mph48%29.77 "HgN/A
6:00 PM84 °FSunny.8 mph45%29.77 "Hg10 mi
5:30 PM84 °FBroken clouds.8 mph45%29.77 "HgN/A
5:00 PM86 °FBroken clouds.8 mph43%29.77 "HgN/A
4:30 PM84 °FBroken clouds.6 mph43%29.77 "HgN/A
4:00 PM86 °FBroken clouds.6 mph40%29.77 "HgN/A
3:30 PM84 °FBroken clouds.6 mph45%29.77 "HgN/A
3:00 PM82 °FBroken clouds.6 mph51%29.80 "HgN/A
2:30 PM82 °FScattered clouds.6 mph45%29.80 "HgN/A
2:00 PM82 °FScattered clouds.6 mph48%29.80 "HgN/A
1:30 PM82 °FScattered clouds.6 mph48%29.80 "HgN/A
1:00 PM82 °FScattered clouds.6 mph48%29.80 "HgN/A
Weather by CustomWeather, © 2015

See weather overviewHow to use our weather pages